Crest Hill, IL

9:21 PM CST on December 09, 2016 (GMT -0600)
Lewis University

Weather History for KLOT - March, 2013

Change the Weather History Date:

Monday, March 18, 2013

  Actual Average Record
Temperature  
Mean Temperature 28 °F 40 °F  
Max Temperature 35 °F 49 °F 80 °F (2012)
Min Temperature 21 °F 30 °F 14 °F (1993)
Degree Days  
Heating Degree Days 37 26  
Month to date heating degree days 604 520  
Since 1 July heating degree days 5058 5248  
Cooling Degree Days 0 0  
Month to date cooling degree days 0 0  
Year to date cooling degree days 0 0  
Moisture  
Dew Point 26 °F    
Average Humidity 86    
Maximum Humidity 99    
Minimum Humidity 67    
Precipitation  
Precipitation 0.06 in 0.09 in 0.20 in (1998)
Month to date precipitation 2.19 1.57  
Year to date precipitation 8.01 5.28  
Snow  
Snow T in 0.20 in 0.80 in (2004)
Month to date snowfall 8.8 3.5  
Since 1 July snowfall 21.8 30.9  
Snow Depth 0.00 in    
Sea Level Pressure  
Sea Level Pressure 29.75 in    
Wind  
Wind Speed 13 mph (SSE)    
Max Wind Speed 30 mph    
Max Gust Speed 40 mph    
Visibility 7 miles    
Events Rain , Snow    
T = Trace of Precipitation, MM = Missing Value Source: NWS Daily Summary

Daily Weather History Graph

Daily Weather History Graph

Search for Another Location

Airport or City:

Trip Planner

Search our weather history database for the weather conditions in past years. The results will help you decide how hot, cold, wet, or windy it might be!

Date:

Astronomy

Mar. 18, 2013 Rise Set
Actual Time 6:58 AM CDT 7:02 PM CDT
Civil Twilight 6:31 AM CDT 7:30 PM CDT
Nautical Twilight 5:58 AM CDT 8:02 PM CDT
Astronomical Twilight 5:25 AM CDT 8:35 PM CDT
Moon 10:53 AM CDT (3/18) 1:06 AM CDT (3/18)
Length of Visible Light 12h 59m
Length of Day
12h 03m
Waxing Crescent, 41% of the Moon is Illuminated
Mar 18
Waxing Crescent
Mar 19
First Quarter
Mar 27
Full
Apr 2
Last Quarter
Apr 10
New

Hourly Weather History & Observations

Time (CDT) Temp. Windchill Dew Point Humidity Pressure Visibility Wind Dir Wind Speed Gust Speed Precip Events Conditions
12:15 AM 30.4 °F 20.5 °F 23.4 °F 75% 29.97 in 10.0 mi ESE 12.7 mph - N/A   Clear
12:35 AM 30.2 °F 19.3 °F 23.2 °F 75% 29.96 in 10.0 mi East 15.0 mph - N/A   Scattered Clouds
12:55 AM 30.2 °F 19.3 °F 23.2 °F 75% 29.95 in 10.0 mi East 15.0 mph 18.4 mph N/A   Scattered Clouds
1:15 AM 30.0 °F 18.7 °F 23.0 °F 75% 29.94 in 10.0 mi East 16.1 mph - N/A   Scattered Clouds
1:35 AM 29.8 °F 20.3 °F 23.4 °F 77% 29.93 in 10.0 mi ESE 11.5 mph - N/A   Scattered Clouds
1:55 AM 30.0 °F 19.5 °F 23.5 °F 77% 29.92 in 10.0 mi ESE 13.8 mph 20.7 mph N/A   Overcast
2:15 AM 30.2 °F 20.8 °F 23.4 °F 76% 29.90 in 10.0 mi East 11.5 mph - N/A   Overcast
2:35 AM 30.2 °F 20.8 °F 23.0 °F 75% 29.90 in 10.0 mi East 11.5 mph - N/A   Overcast
2:55 AM 30.2 °F 20.2 °F 23.5 °F 76% 29.88 in 10.0 mi East 12.7 mph - N/A   Overcast
3:15 AM 30.2 °F 20.2 °F 23.4 °F 76% 29.86 in 10.0 mi East 12.7 mph 18.4 mph N/A   Overcast
3:35 AM 30.2 °F 20.8 °F 23.2 °F 75% 29.85 in 10.0 mi East 11.5 mph - N/A   Overcast
3:55 AM 30.2 °F 21.9 °F 23.5 °F 76% 29.84 in 10.0 mi ENE 9.2 mph - N/A   Overcast
4:15 AM 30.0 °F 20.5 °F 23.9 °F 78% 29.82 in 10.0 mi East 11.5 mph - N/A Snow Light Snow
4:35 AM 30.0 °F 20.5 °F 24.4 °F 80% 29.81 in 10.0 mi ENE 11.5 mph - N/A Snow Light Snow
4:55 AM 30.2 °F 21.3 °F 24.6 °F 80% 29.80 in 10.0 mi East 10.4 mph - N/A Snow Light Snow
5:15 AM 30.2 °F 21.9 °F 25.3 °F 82% 29.80 in 10.0 mi ENE 9.2 mph - N/A Snow Light Snow
5:35 AM 30.2 °F 20.8 °F 25.5 °F 83% 29.79 in 10.0 mi East 11.5 mph - N/A   Light Freezing Rain
5:55 AM 30.2 °F 20.8 °F 26.4 °F 86% 29.78 in 7.0 mi East 11.5 mph - N/A   Overcast
6:15 AM 30.2 °F 22.6 °F 27.1 °F 88% 29.77 in 7.0 mi East 8.1 mph - N/A   Overcast
6:35 AM 30.2 °F 21.9 °F 27.5 °F 90% 29.77 in 5.0 mi East 9.2 mph - N/A   Overcast
6:55 AM 30.2 °F 21.3 °F 28.4 °F 93% 29.76 in 5.0 mi ENE 10.4 mph - N/A   Overcast
7:15 AM 30.0 °F 20.5 °F 28.4 °F 94% 29.74 in 5.0 mi East 11.5 mph - N/A   Light Freezing Rain
7:35 AM 30.0 °F 23.2 °F 28.4 °F 94% 29.74 in 5.0 mi East 6.9 mph - N/A   Light Freezing Rain
7:55 AM 30.2 °F 22.6 °F 28.9 °F 95% 29.74 in 4.0 mi ENE 8.1 mph - N/A   Light Freezing Rain
8:15 AM 30.2 °F 22.6 °F 29.1 °F 96% 29.72 in 4.0 mi ENE 8.1 mph - N/A   Overcast
8:35 AM 30.2 °F 22.6 °F 29.1 °F 96% 29.71 in 5.0 mi ENE 8.1 mph - N/A   Overcast
8:55 AM 30.4 °F 23.6 °F 29.3 °F 96% 29.71 in 4.0 mi East 6.9 mph - N/A   Overcast
9:15 AM 30.6 °F 23.1 °F 29.3 °F 95% 29.70 in 4.0 mi ENE 8.1 mph - N/A   Overcast
9:35 AM 30.7 °F 24.1 °F 29.7 °F 96% 29.70 in 4.0 mi East 6.9 mph - N/A   Overcast
9:55 AM 31.1 °F 26.4 °F 30.2 °F 96% 29.69 in 1.2 mi East 4.6 mph - N/A   Light Freezing Rain
10:15 AM 31.1 °F 26.4 °F 30.6 °F 98% 29.68 in 1.5 mi East 4.6 mph - N/A   Light Freezing Rain
10:35 AM 31.6 °F 25.1 °F 31.1 °F 98% 29.67 in 2.0 mi East 6.9 mph - N/A   Light Freezing Rain
10:55 AM 31.6 °F 27.0 °F 30.9 °F 97% 29.68 in 3.0 mi ESE 4.6 mph - N/A   Overcast
11:15 AM 31.8 °F - 31.1 °F 97% 29.67 in 4.0 mi Calm Calm - N/A Rain Light Freezing Rain
11:35 AM 32.0 °F 28.7 °F 31.1 °F 96% 29.66 in 2.5 mi ESE 3.5 mph - N/A   Drizzle
11:55 AM 32.0 °F - 31.3 °F 97% 29.66 in 2.5 mi Calm Calm - N/A   Light Drizzle
12:15 PM 32.0 °F - 31.1 °F 96% 29.64 in 3.0 mi Calm Calm - N/A   Drizzle
12:35 PM 32.0 °F 28.7 °F 31.6 °F 99% 29.65 in 3.0 mi SSW 3.5 mph - N/A   Drizzle
12:55 PM 32.0 °F 28.7 °F 31.6 °F 99% 29.64 in 5.0 mi SW 3.5 mph - N/A   Light Drizzle
1:15 PM 32.4 °F 26.9 °F 31.8 °F 98% 29.63 in 5.0 mi SSW 5.8 mph - N/A   Light Drizzle
1:35 PM 32.7 °F 25.7 °F 32.0 °F 97% 29.63 in 3.0 mi SW 8.1 mph - N/A   Overcast
1:55 PM 32.9 °F 25.3 °F 32.0 °F 96% 29.62 in 3.0 mi WSW 9.2 mph - N/A   Overcast
2:15 PM 32.7 °F 23.9 °F 32.0 °F 97% 29.63 in 7.0 mi WSW 11.5 mph - N/A   Overcast
2:35 PM 32.7 °F 22.5 °F 31.8 °F 96% 29.63 in 3.0 mi WSW 15.0 mph - N/A Snow Light Snow
2:55 PM 32.5 °F 24.2 °F 32.0 °F 98% 29.62 in 2.0 mi WSW 10.4 mph - N/A Snow Light Snow
3:15 PM 33.3 °F 23.7 °F 32.2 °F 96% 29.62 in 3.0 mi WSW 13.8 mph - N/A   Overcast
3:35 PM 33.4 °F 23.9 °F 32.0 °F 94% 29.63 in 7.0 mi West 13.8 mph - N/A   Overcast
3:55 PM 33.6 °F 24.1 °F 32.2 °F 94% 29.63 in 3.0 mi West 13.8 mph 18.4 mph N/A Snow Light Snow
4:15 PM 34.0 °F 23.8 °F 32.9 °F 96% 29.63 in 4.0 mi West 16.1 mph 20.7 mph N/A Snow Light Snow
4:35 PM 34.0 °F 23.0 °F 32.4 °F 94% 29.63 in 10.0 mi West 18.4 mph 25.3 mph N/A   Overcast
4:55 PM 34.2 °F 23.3 °F 32.4 °F 93% 29.64 in 10.0 mi West 18.4 mph - N/A   Overcast
5:15 PM 34.7 °F 24.3 °F 32.9 °F 93% 29.64 in 10.0 mi West 17.3 mph - N/A   Overcast
5:35 PM 34.7 °F 24.3 °F 32.5 °F 92% 29.64 in 10.0 mi West 17.3 mph - N/A   Overcast
5:55 PM 34.3 °F 22.3 °F 32.4 °F 92% 29.66 in 4.0 mi West 23.0 mph 31.1 mph N/A   Overcast
6:15 PM 32.2 °F 19.4 °F 31.3 °F 96% 29.68 in 2.5 mi West 23.0 mph 33.4 mph N/A   Overcast
6:35 PM 32.0 °F 19.2 °F 29.7 °F 91% 29.69 in 7.0 mi West 23.0 mph 27.6 mph N/A   Overcast
6:55 PM 31.1 °F 17.4 °F 27.0 °F 85% 29.71 in 10.0 mi West 25.3 mph 31.1 mph N/A   Overcast
7:15 PM 29.8 °F 14.7 °F 23.0 °F 76% 29.73 in 10.0 mi West 29.9 mph 39.1 mph N/A   Overcast
7:35 PM 28.9 °F 14.5 °F 21.6 °F 74% 29.74 in 10.0 mi WNW 25.3 mph 35.7 mph N/A   Overcast
7:55 PM 27.5 °F 11.5 °F 20.5 °F 75% 29.76 in 10.0 mi West 29.9 mph 35.7 mph N/A   Overcast
8:15 PM 27.1 °F 13.4 °F 19.9 °F 74% 29.76 in 10.0 mi WNW 20.7 mph 33.4 mph N/A   Overcast
8:35 PM 26.6 °F 10.3 °F 19.0 °F 73% 29.77 in 10.0 mi West 29.9 mph 36.8 mph N/A   Overcast
8:55 PM 26.2 °F 10.1 °F 17.8 °F 70% 29.78 in 10.0 mi WNW 28.8 mph 35.7 mph N/A   Overcast
9:15 PM 26.2 °F 10.6 °F 18.5 °F 73% 29.78 in 10.0 mi West 26.5 mph 32.2 mph N/A Snow Light Snow
9:35 PM 25.5 °F 8.8 °F 18.1 °F 74% 29.79 in 10.0 mi West 29.9 mph 36.8 mph N/A Snow Light Snow
9:55 PM 24.6 °F 7.9 °F 15.1 °F 67% 29.80 in 10.0 mi West 28.8 mph 38.0 mph N/A   Overcast
10:15 PM 24.3 °F 7.1 °F 14.9 °F 68% 29.81 in 10.0 mi West 29.9 mph 39.1 mph N/A   Overcast
10:35 PM 23.9 °F 7.5 °F 15.1 °F 69% 29.81 in 10.0 mi WNW 26.5 mph 36.8 mph N/A   Overcast
10:55 PM 23.4 °F 6.5 °F 16.9 °F 76% 29.81 in 2.0 mi West 27.6 mph 33.4 mph N/A Snow Light Snow
11:15 PM 23.0 °F 6.9 °F 15.4 °F 73% 29.81 in 10.0 mi West 24.2 mph 35.7 mph N/A Snow Light Snow
11:35 PM 22.8 °F 5.4 °F 13.5 °F 67% 29.81 in 10.0 mi WNW 28.8 mph 36.8 mph N/A   Mostly Cloudy
11:55 PM 22.3 °F 5.6 °F 13.3 °F 68% 29.81 in 10.0 mi West 25.3 mph 40.3 mph N/A   Scattered Clouds